OPS 4682 DEB, 14717

Orbit data source: Space-Track

OPS 4682 DEB, 14717 is space debris in LEO originally from a launch on Sat, 03 Apr 1965 UTC launched from the Air Force Western Test Range (AFWTR). Debris objects in space refer to the collection of defunct objects orbiting the Earth. Examples of debris include non-operational satellites, rocket bodies, and fragments generated from explosions, collisions, or faulty payload assembly.

Loading next visibility...
Identifier
14717, 1965-027Q
Orbit
LEO
Country
Flag of USUS
Related business
Manufacturer
Unknown
Mission
Spacecraft
Bus & Motor
Unknown
Mass
Unknown
Launch date (UTC)
1965-04-03 (61 years ago)
Launch vehicle
Unknown
Launch site
Air Force Western Test Range (AFWTR)
Object type
Payload
Rocket body
Debris
Shape & HBR
Unknown shape, 0.1 m
Radar Cross Section
Small (<0.1 m²)

Expand to show TLE details & history
Last TLE update: 10 hours ago

TLE from 10 hours ago
0 OPS 4682 DEB
1 14717U 65027Q   26068.24191413  .00000411  00000-0  13874-2 0  9998
2 14717  90.2404 348.5570 0034345 352.4045 160.7900 12.97411748103129
Epoch: 2026-03-09T05:48Z
TLE epoch observation values (Epoch: 2026-03-09T05:48:21.380Z)
Latitude
26.70869°
Longitude
-85.34941°
Altitude
1,300.323 km
Speed
7.197 km/s
True Right ascension
11h 14m 42s
True Declination
26° 34' 50"
Sunlit
Object was in full shadow at epoch
Visualization orbit readout
Latitude
Unknown
Longitude
Unknown
Altitude
Unknown
Speed
Unknown
Apparent Right ascension
Unknown
Apparent Declination
Unknown
Sunlit
N/A
Visualization observer readout
Local Sidereal Time
20:04:22
Azimuth
Unknown
Elevation
Unknown
Doppler factor
Unknown
Orbital elements
Apogee altitude
1,295.641 km
Perigee altitude
1,243.11 km
Semi-major axis
7,647.512 km
Eccentricity
0.00343
Inclination
90.2404°
RAAN
348.557°
Arg. of periapsis
352.4045°
True anomaly
160.91897°
Mean anomaly
160.79°
Eccentric anomaly
160.85454°
Mean motion
3.24536 °/min
Orbital period
110.93 mins
BSTAR
0.0013874
Loading maneuver chart data...
Computing Atmospheric mass density...
Loading historical data...
Loading historical data...
Loading historical data...
Loading historical data...
Loading historical data...
Loading historical data...
Loading historical data...

Documentation

Showing up to 5 results
|